N242UP KWYS-KWYS

Flight info

Callsign N242UP
Flight time N/A
Altitude 1500
Route VFR
Aircraft C172/L-V/C

Departure

Time 2026-05-09 04:42
Airport Yellowstone Airport (KWYS)

Arrival

Time N/A
Airport Yellowstone Airport (KWYS)
Time Latitude Longitude Altitude Speed Heading
2026-05-09 04:23 44.68928 -111.11340 6655 ft 0 kts 26°
2026-05-09 04:27 44.68926 -111.11341 6653 ft 0 kts 306°
2026-05-09 04:31 44.68916 -111.11365 6653 ft 3 kts 206°
2026-05-09 04:31 44.68901 -111.11382 6653 ft 9 kts 253°
2026-05-09 04:31 44.68870 -111.11453 6653 ft 7 kts 202°
2026-05-09 04:31 44.68858 -111.11502 6653 ft 5 kts 294°
2026-05-09 04:32 44.68883 -111.11552 6653 ft 8 kts 342°
2026-05-09 04:32 44.68950 -111.11517 6653 ft 12 kts 22°
2026-05-09 04:32 44.69020 -111.11468 6653 ft 9 kts 26°
2026-05-09 04:32 44.69064 -111.11439 6653 ft 7 kts 24°
2026-05-09 04:33 44.69101 -111.11415 6653 ft 6 kts 28°
2026-05-09 04:33 44.69141 -111.11410 6653 ft 0 kts 306°
2026-05-09 04:33 44.69141 -111.11411 6653 ft 0 kts 301°
2026-05-09 04:38 44.69150 -111.11433 6653 ft 10 kts 300°
2026-05-09 04:38 44.69174 -111.11533 6653 ft 4 kts 208°
2026-05-09 04:38 44.69170 -111.11536 6653 ft 0 kts 203°
2026-05-09 04:41 44.69055 -111.11616 6653 ft 41 kts 206°
2026-05-09 04:41 44.68692 -111.11862 6658 ft 71 kts 205°
2026-05-09 04:41 44.68236 -111.12169 6780 ft 74 kts 201°
2026-05-09 04:41 44.67745 -111.12445 6892 ft 77 kts 199°
2026-05-09 04:42 44.67238 -111.12688 7034 ft 75 kts 194°
2026-05-09 04:42 44.66686 -111.12752 7081 ft 86 kts 171°
2026-05-09 04:42 44.66364 -111.12178 7215 ft 88 kts 103°
2026-05-09 04:42 44.66210 -111.11314 7325 ft 88 kts 105°
2026-05-09 04:43 44.66092 -111.10476 7452 ft 88 kts 102°
2026-05-09 04:43 44.65897 -111.09604 7486 ft 97 kts 110°
2026-05-09 04:43 44.65712 -111.08704 7593 ft 97 kts 105°
2026-05-09 04:43 44.65569 -111.07735 7659 ft 101 kts 102°
2026-05-09 04:44 44.65458 -111.06745 7709 ft 106 kts 98°
2026-05-09 04:44 44.65391 -111.05695 7801 ft 106 kts 97°
2026-05-09 04:44 44.65304 -111.04678 7918 ft 103 kts 99°
2026-05-09 04:44 44.65214 -111.03693 8030 ft 101 kts 97°
2026-05-09 04:45 44.65144 -111.02713 8130 ft 100 kts 96°
2026-05-09 04:45 44.65083 -111.01713 8206 ft 103 kts 96°
2026-05-09 04:45 44.65020 -111.00730 8310 ft 101 kts 98°
2026-05-09 04:45 44.64920 -110.99735 8375 ft 104 kts 99°
2026-05-09 04:46 44.64807 -110.98695 8366 ft 111 kts 99°
2026-05-09 04:46 44.64693 -110.97579 8225 ft 118 kts 99°
2026-05-09 04:46 44.64591 -110.96421 7995 ft 126 kts 96°
2026-05-09 04:46 44.64537 -110.95182 7785 ft 125 kts 94°
2026-05-09 04:47 44.64440 -110.93987 7690 ft 120 kts 100°
2026-05-09 04:47 44.64307 -110.92846 7573 ft 113 kts 98°
2026-05-09 04:47 44.64205 -110.91760 7507 ft 109 kts 98°
2026-05-09 04:47 44.64134 -110.90755 7483 ft 99 kts 96°
2026-05-09 04:48 44.64129 -110.89797 7422 ft 97 kts 91°
2026-05-09 04:48 44.64151 -110.88847 7376 ft 96 kts 86°
2026-05-09 04:48 44.64225 -110.87884 7425 ft 95 kts 84°
2026-05-09 04:48 44.64292 -110.86977 7522 ft 93 kts 85°
2026-05-09 04:49 44.64329 -110.86047 7618 ft 95 kts 89°
2026-05-09 04:49 44.64062 -110.85207 7645 ft 100 kts 150°
2026-05-09 04:49 44.63353 -110.85355 7556 ft 113 kts 209°
2026-05-09 04:49 44.62633 -110.85777 7589 ft 114 kts 188°
2026-05-09 04:50 44.61839 -110.85609 7588 ft 117 kts 161°
2026-05-09 04:50 44.61156 -110.85053 7625 ft 112 kts 144°
2026-05-09 04:50 44.60618 -110.84356 7763 ft 101 kts 129°
2026-05-09 04:50 44.60184 -110.83617 7840 ft 98 kts 133°
2026-05-09 04:51 44.59602 -110.83112 7881 ft 99 kts 166°
2026-05-09 04:51 44.58899 -110.83025 7889 ft 103 kts 181°
2026-05-09 04:51 44.58167 -110.83112 7913 ft 104 kts 190°
2026-05-09 04:51 44.57542 -110.82954 8099 ft 85 kts 132°
2026-05-09 04:52 44.57183 -110.82220 8117 ft 91 kts 124°
2026-05-09 04:52 44.56680 -110.81661 8164 ft 93 kts 153°
2026-05-09 04:52 44.56083 -110.81250 8174 ft 96 kts 153°
2026-05-09 04:52 44.55439 -110.80888 8178 ft 99 kts 169°
2026-05-09 04:53 44.54763 -110.80942 8206 ft 93 kts 191°
2026-05-09 04:53 44.54209 -110.81112 8164 ft 72 kts 208°
2026-05-09 04:53 44.53837 -110.81658 8135 ft 83 kts 233°
2026-05-09 04:53 44.53500 -110.82387 8103 ft 95 kts 243°
2026-05-09 04:54 44.53217 -110.83240 8153 ft 94 kts 240°
2026-05-09 04:54 44.52671 -110.83322 8189 ft 102 kts 142°
2026-05-09 04:54 44.52074 -110.82780 8226 ft 99 kts 186°
2026-05-09 04:54 44.51437 -110.83195 8194 ft 106 kts 195°
2026-05-09 04:55 44.50718 -110.83432 8247 ft 102 kts 198°
2026-05-09 04:55 44.50011 -110.83800 8149 ft 114 kts 209°
2026-05-09 04:55 44.49311 -110.84426 8043 ft 119 kts 217°
2026-05-09 04:55 44.48611 -110.85046 7969 ft 121 kts 211°
2026-05-09 04:56 44.47879 -110.85636 7947 ft 114 kts 211°
2026-05-09 04:56 44.47136 -110.85828 7954 ft 111 kts 164°
2026-05-09 04:56 44.46472 -110.85322 7961 ft 105 kts 133°
2026-05-09 04:56 44.46037 -110.84502 7926 ft 106 kts 129°
2026-05-09 04:57 44.45628 -110.83609 7891 ft 108 kts 110°
2026-05-09 04:57 44.45332 -110.82626 7904 ft 105 kts 101°
2026-05-09 04:57 44.45295 -110.81619 7948 ft 98 kts 103°
2026-05-09 04:57 44.44902 -110.80933 8048 ft 91 kts 139°
2026-05-09 04:58 44.44379 -110.80441 8106 ft 89 kts 150°
2026-05-09 04:58 44.43828 -110.79999 8141 ft 90 kts 142°
2026-05-09 04:58 44.43491 -110.79301 8204 ft 88 kts 107°
2026-05-09 04:58 44.43334 -110.78487 8247 ft 88 kts 101°
2026-05-09 04:59 44.43242 -110.77628 8286 ft 88 kts 92°
2026-05-09 04:59 44.43202 -110.76764 8319 ft 89 kts 90°
2026-05-09 04:59 44.43123 -110.75883 8347 ft 91 kts 101°
2026-05-09 04:59 44.43157 -110.75039 8401 ft 89 kts 70°
2026-05-09 05:00 44.43322 -110.74195 8426 ft 91 kts 72°
2026-05-09 05:00 44.43556 -110.73352 8471 ft 91 kts 73°
2026-05-09 05:00 44.43762 -110.72540 8514 ft 89 kts 57°
2026-05-09 05:00 44.44156 -110.71846 8507 ft 93 kts 59°
2026-05-09 05:01 44.44365 -110.70969 8512 ft 96 kts 72°
2026-05-09 05:01 44.44557 -110.70058 8507 ft 99 kts 72°
2026-05-09 05:01 44.44743 -110.69111 8518 ft 100 kts 74°
2026-05-09 05:01 44.44702 -110.68195 8583 ft 94 kts 131°
2026-05-09 05:02 44.44121 -110.67844 8626 ft 90 kts 169°
2026-05-09 05:02 44.43503 -110.67634 8669 ft 90 kts 167°
2026-05-09 05:02 44.43026 -110.67177 8745 ft 88 kts 109°
2026-05-09 05:02 44.43017 -110.66308 8763 ft 91 kts 83°
2026-05-09 05:03 44.43161 -110.65414 8768 ft 95 kts 70°
2026-05-09 05:03 44.43301 -110.64504 8816 ft 95 kts 84°
2026-05-09 05:03 44.43194 -110.63591 8836 ft 98 kts 112°
2026-05-09 05:03 44.42903 -110.62711 8864 ft 98 kts 118°
2026-05-09 05:04 44.42548 -110.61842 8875 ft 101 kts 122°
2026-05-09 05:04 44.42187 -110.61011 8926 ft 100 kts 122°
2026-05-09 05:04 44.41810 -110.60185 8961 ft 100 kts 124°
2026-05-09 05:04 44.41407 -110.59367 8988 ft 101 kts 128°
2026-05-09 05:05 44.40949 -110.58649 9038 ft 99 kts 133°
2026-05-09 05:05 44.40487 -110.57836 8812 ft 109 kts 124°
2026-05-09 05:05 44.40291 -110.56766 8437 ft 121 kts 84°
2026-05-09 05:05 44.40643 -110.55717 8159 ft 120 kts 56°
2026-05-09 05:06 44.41105 -110.54770 7898 ft 112 kts 54°
2026-05-09 05:06 44.41510 -110.53925 7793 ft 97 kts 57°
2026-05-09 05:06 44.41829 -110.53147 7784 ft 86 kts 58°
2026-05-09 05:06 44.42103 -110.52437 7775 ft 81 kts 59°
2026-05-09 05:07 44.42398 -110.51704 7778 ft 91 kts 55°
2026-05-09 05:07 44.42726 -110.50957 7877 ft 86 kts 51°
2026-05-09 05:07 44.43108 -110.50318 7836 ft 95 kts 43°
2026-05-09 05:07 44.43588 -110.49573 7804 ft 107 kts 46°
2026-05-09 05:08 44.44054 -110.48731 7791 ft 108 kts 53°
2026-05-09 05:08 44.44438 -110.47836 7803 ft 105 kts 61°
2026-05-09 05:08 44.44776 -110.46915 7779 ft 107 kts 63°
2026-05-09 05:08 44.45060 -110.45986 7783 ft 104 kts 67°
2026-05-09 05:09 44.45305 -110.45040 7799 ft 101 kts 71°
2026-05-09 05:09 44.45483 -110.44176 7998 ft 89 kts 69°
2026-05-09 05:09 44.45813 -110.43410 8062 ft 92 kts 49°
2026-05-09 05:09 44.46272 -110.42780 8149 ft 93 kts 34°
2026-05-09 05:10 44.46864 -110.42239 8158 ft 102 kts 43°
2026-05-09 05:10 44.46827 -110.41381 8243 ft 102 kts 150°
2026-05-09 05:10 44.46342 -110.41864 8244 ft 105 kts 250°
2026-05-09 05:10 44.46011 -110.42808 8261 ft 109 kts 242°
2026-05-09 05:11 44.45705 -110.43816 8295 ft 109 kts 250°
2026-05-09 05:11 44.45448 -110.44771 8430 ft 103 kts 247°
2026-05-09 05:11 44.45173 -110.45683 8526 ft 101 kts 246°
2026-05-09 05:11 44.44892 -110.46602 8547 ft 103 kts 246°
2026-05-09 05:12 44.44608 -110.47546 8533 ft 106 kts 248°
2026-05-09 05:12 44.44313 -110.48511 8445 ft 113 kts 243°
2026-05-09 05:12 44.43911 -110.49519 8237 ft 125 kts 237°
2026-05-09 05:12 44.43415 -110.50522 8071 ft 123 kts 232°
2026-05-09 05:13 44.42859 -110.51402 7971 ft 119 kts 236°
2026-05-09 05:13 44.42490 -110.52399 7942 ft 111 kts 231°
2026-05-09 05:13 44.41835 -110.52823 8003 ft 103 kts 173°
2026-05-09 05:13 44.41416 -110.52096 8007 ft 103 kts 85°
2026-05-09 05:14 44.41900 -110.51531 8027 ft 98 kts 353°
2026-05-09 05:14 44.42298 -110.52286 7945 ft 105 kts 271°
2026-05-09 05:14 44.41871 -110.52973 8019 ft 93 kts 184°
2026-05-09 05:14 44.41416 -110.52406 7921 ft 93 kts 114°
2026-05-09 05:15 44.41383 -110.51538 7900 ft 91 kts 66°
2026-05-09 05:15 44.41792 -110.50879 7942 ft 95 kts 30°
2026-05-09 05:15 44.42416 -110.50605 8056 ft 89 kts 339°
2026-05-09 05:15 44.42856 -110.51128 8132 ft 91 kts 323°
2026-05-09 05:16 44.43464 -110.51454 8225 ft 92 kts 356°
2026-05-09 05:16 44.43926 -110.50857 8045 ft 112 kts 68°
2026-05-09 05:16 44.44226 -110.49692 7783 ft 130 kts 69°
2026-05-09 05:16 44.44480 -110.48532 7814 ft 120 kts 73°
2026-05-09 05:17 44.44648 -110.47395 7796 ft 117 kts 79°
2026-05-09 05:17 44.44735 -110.46259 7780 ft 116 kts 84°
2026-05-09 05:17 44.44791 -110.45216 7911 ft 104 kts 65°
2026-05-09 05:17 44.45329 -110.44974 8064 ft 91 kts 314°
2026-05-09 05:18 44.45295 -110.45798 8118 ft 95 kts 243°
2026-05-09 05:18 44.44937 -110.46549 8132 ft 105 kts 241°
2026-05-09 05:18 44.44612 -110.47451 8239 ft 101 kts 246°
2026-05-09 05:18 44.44237 -110.48333 8242 ft 108 kts 227°
2026-05-09 05:19 44.43630 -110.48998 8211 ft 112 kts 214°
2026-05-09 05:19 44.42966 -110.49603 8167 ft 114 kts 212°
2026-05-09 05:19 44.42231 -110.50050 7993 ft 115 kts 198°
2026-05-09 05:19 44.41482 -110.50276 7828 ft 103 kts 193°
2026-05-09 05:20 44.40844 -110.50475 7772 ft 85 kts 197°
2026-05-09 05:20 44.40736 -110.50610 7762 ft 12 kts 314°
2026-05-09 05:20 44.40759 -110.50639 7762 ft 1 kts 317°
2026-05-09 05:20 44.40761 -110.50642 7765 ft 0 kts 316°
2026-05-09 05:21 44.40763 -110.50645 7760 ft 1 kts 286°
2026-05-09 05:21 44.40757 -110.50671 7754 ft 3 kts 184°
2026-05-09 05:21 44.40736 -110.50678 7755 ft 0 kts 207°
2026-05-09 05:22 44.40719 -110.50680 7754 ft 2 kts 127°
2026-05-09 05:22 44.40414 -110.50147 7759 ft 0 kts 124°
2026-05-09 05:23 44.40413 -110.50146 7759 ft 2 kts 121°
2026-05-09 05:24 44.40344 -110.50084 7760 ft 21 kts 158°
2026-05-09 05:24 44.40127 -110.50082 7758 ft 41 kts 181°